OBJECT B, 56744

Orbit data source: Space-Track

You're viewing an Uncataloged Satellite

Recently launched and/or uncataloged satellites may have evolving metadata. Metadata may include but not limited to: Owner, Maufacturer, Bus, Motor, and Mission.

OBJECT B, 56744 is a satellite owned by KASI (KR) in SSO that was launched on Thu, 25 May 2023 UTC via an NURI launch vehicle from the Naro Space Center, South Korea (NSC). Unknown objects in Earth's orbit typically refer to objects detected orbiting the Earth but have not yet been identified or cataloged. These objects could be anything from previously untracked satellites, spent rocket stages, debris from satellite collisions, or even natural meteoroids temporarily captured by Earth's gravity.

Loading next visibility...
Identifier
56744, 2023-072B
Orbit
SSO
Country
Flag of UnknownUnknown / SKOR
Related business
Flag of KRKorea Astronomy and Space Science Institute (KR)
Manufacturer
KASI
Mission
Operational Civil Ast/Sci
Bus & Motor
CUBESAT 6U, Unknown motor
Mass
10 kg wet, 10 kg dry
Launch date (UTC)
2023-05-25 (2 years ago)
Launch vehicle
NURI
Launch site
Naro Space Center, South Korea (NSC)
Object type
Unknown
Shape & HBR
Box + 2 Pan, 0.3 m
Radar Cross Section
0.054 m², Medium (>0.1 m² and < 1m²)

Expand to show TLE details & history
Last TLE update: 11 hours ago

TLE from 11 hours ago
0 OBJECT B
1 56744U 23072B   25286.59536427  .00022495  00000-0  74783-3 0  9998
2 56744  97.5443 121.4619 0008150 121.4987 238.7051 15.31161463132238
Epoch: 2025-10-13T14:17Z
TLE epoch observation values (Epoch: 2025-10-13T14:17:19.472Z)
Latitude
-0.00006°
Longitude
-115.26511°
Altitude
478.351 km
Speed
7.625 km/s
True Right ascension
08h 05m 50s
True Declination
0° 00' 00"
Sunlit
Object was in daylight at epoch
Visualization orbit readout
Latitude
Unknown
Longitude
Unknown
Altitude
Unknown
Speed
Unknown
Apparent Right ascension
Unknown
Apparent Declination
Unknown
Sunlit
N/A
Visualization observer readout
Local Sidereal Time
19:42:33
Azimuth
Unknown
Elevation
Unknown
Doppler factor
Unknown
Orbital elements
Apogee altitude
474.883 km
Perigee altitude
463.722 km
Semi-major axis
6,847.44 km
Eccentricity
0.00082
Inclination
97.5443°
RAAN
121.4619°
Arg. of periapsis
121.4987°
True anomaly
238.62534°
Mean anomaly
238.7051°
Eccentric anomaly
238.66521°
Mean motion
3.83046 °/min
Orbital period
93.98 mins
BSTAR
0.00074783
Loading maneuver chart data...
Computing Atmospheric mass density...
Loading historical data...
Loading historical data...
Loading historical data...
Loading historical data...
Loading historical data...
Loading historical data...
Loading historical data...

Documentation

Showing up to 5 results
|